This is the latest recevied weather packets stored in our database for station/object VE2JJ-13. If no packets are shown the sender has not sent any weather packets the latest 10 day(s).
| Time | Temp. | Humidity | Pressure | Rain* | Wind** | Luminosity | Snow |
|---|---|---|---|---|---|---|---|
| 1778091033 | 8.33° C | 82% | 1001.8 hPa | 0 mm | - | - | - |
| 1778090733 | 7.78° C | 82% | 1001.8 hPa | 0 mm | - | - | - |
| 1778090403 | 8.33° C | 84% | 1002 hPa | 0 mm | - | - | - |
| 1778090071 | 7.78° C | 82% | 1002 hPa | 0 mm | - | - | - |
| 1778089771 | 7.78° C | 83% | 1002 hPa | 0 mm | - | - | - |
| 1778089471 | 7.78° C | 84% | 1002 hPa | 0 mm | - | - | - |
| 1778089141 | 7.78° C | 83% | 1002.1 hPa | 0 mm | - | - | - |
| 1778088511 | 7.22° C | 84% | 1002.4 hPa | 0.25 mm | - | - | - |
| 1778088211 | 7.78° C | 84% | 1002.4 hPa | 0.25 mm | - | - | - |
| 1778087911 | 8.33° C | 84% | 1002.4 hPa | 0.25 mm | - | - | - |
| 1778087611 | 8.33° C | 84% | 1002.3 hPa | 0.25 mm | - | - | - |
| 1778086981 | 8.33° C | 83% | 1002.3 hPa | 0.25 mm | - | - | - |
| 1778086655 | 8.33° C | 83% | 1002.3 hPa | 0.51 mm | - | - | - |
| 1778086351 | 8.33° C | 84% | 1002.6 hPa | 0.51 mm | - | - | - |
| 1778086020 | 8.33° C | 87% | 1002.6 hPa | 0.51 mm | - | - | - |
| 1778085720 | 8.33° C | 87% | 1002.6 hPa | 0.51 mm | - | - | - |
| 1778085423 | 7.78° C | 87% | 1002.7 hPa | 0.76 mm | - | - | - |
| 1778085092 | 7.78° C | 87% | 1002.7 hPa | 0.76 mm | - | - | - |
| 1778084790 | 7.78° C | 88% | 1002.7 hPa | 0.76 mm | - | - | - |
| 1778084491 | 7.22° C | 87% | 1002.7 hPa | 0.76 mm | - | - | - |
| 1778083862 | 7.22° C | 88% | 1003 hPa | 1.02 mm | - | - | - |
| 1778083534 | 7.22° C | 87% | 1003 hPa | 1.27 mm | - | - | - |
| 1778083207 | 7.78° C | 88% | 1003 hPa | 1.27 mm | - | - | - |
| 1778082875 | 7.22° C | 88% | 1003 hPa | 1.02 mm | - | - | - |
| 1778082540 | 7.22° C | 89% | 1002.9 hPa | 1.27 mm | - | - | - |
* Rain latest hour (hover to see other rain measurements)
** Current wind speed in m/s (hover to see current wind gust speed)